METEOR 2-11

Satellite information

Favourite Embed

Satellite Type and Status

PAYLOADIN ORBIT

Key statistics

Satellite METEOR 2-11 at a glance.

Uptime

15031

Days in orbit

Revolutions

≈ 13.9

Per day

Orbit

LEO

Low Earth Orbit

Inclination

82.5

Latest

Satellite identification and parameters

Extended collection of information and parameters for METEOR 2-11.

Object identification

Identified? True

Debris? False

Object name: METEOR 2-11

International designator: 1984-072A

Object number (NORAD): 15099

Object ID (CCSDS): 15099

Country: COMMONWEALTH OF INDEPENDENT STATES (CIS)

Current information (Y/N): Y

RCS size: LARGE

Orbital parameters

Period: 103.951 minutes

Inclination: 82.527 deg

SMA: 7323.39 km

Apoapsis: 954.868 km

Periapsis: 935.643 km

RAAN: 271.535 deg

Eccentricy: 0.00131252

Argument of periapsis: 183.3047 deg

Mean anomaly: 176.8029 deg

Mean motion: 13.85270157 rev/day

Mean motion (dot): 0.00000046 rev/day2

B* drag term: 0.000027759827 1/REarth

Two-line elements (TLE)

Creation date: Aug. 30, 2025, 3:38 a.m.

Reference frame: TEME

Reference center: EARTH

Epoch: Aug. 29, 2025, 7:47 p.m. UTC

TLE line 0: 0 METEOR 2-11

TLE line 1: 1 15099U 84072A 25241.82469339 .00000046 00000-0 27760-4 0 9999

TLE line 2: 2 15099 82.5270 271.5350 0013125 183.3047 176.8029 13.85270157 80001

Live tracking on map

Real-time ground track for satellite METEOR 2-11.

In-orbit conjunctions

A list of the most updated potential collisions computed for object METEOR 2-11.

Target Orbit TCA Probability of collision Miss distance Type
FENGYUN 1C DEB SSO 2025-05-22 13:23:48 0.000197044 448.0 (m) DEBRIS
FENGYUN 1C DEB SSO 2025-02-18 19:40:01 0.0001463054 54.0 (m) DEBRIS
FENGYUN 1C DEB SSO 2025-01-08 19:06:14 0.0001367065 746.0 (m) DEBRIS
SL-16 DEB LEO 2024-11-27 09:01:21 0.0001864615 553.0 (m) DEBRIS
FENGYUN 1C DEB SSO 2024-06-30 09:45:02 0.000150338 817.0 (m) DEBRIS

Associated space launch

Second generation soviet meteorological satellite

METEOR 2-11 was lifted into orbit during the mission ‘Tsiklon-3 | Meteor-2 11’, on board a Tsiklon-3 space rocket.

The launch took place on July 5, 1984, 3:35 a.m. from 32/2.

For more information about the launch, click the button.

Launch to space Tsiklon-3 | Meteor-2 11
Tsiklon-3 | Meteor-2 11

Agency: N/A

Status: Launch Successful

Launch date: July 5, 1984, 3:35 a.m. UTC

Rocket: Tsiklon-3

Launch pad: 32/2

Location: Plesetsk Cosmodrome, Russian Federation

...

Latest news about this satellite

There are no fresh news available about this satellite. Check back as we update our databases every day.


Newsletter sign-up

Weekly statistics, charts and insights to help you stay on top of the space industry.